Location: Caltech
(34.1382°N, 118.1253°W)
Time: 16:40:49
(UTC-07:00)

Iridium 91 - Visible Passes

Search period start: 03 July 2015 00:00
Search period end: 13 July 2015 00:00
Orbit: 776 x 779 km, 86.4° (Epoch: 03 July)

Date Brightness Start Highest point End Pass type
(mag) Time Alt. Az. Time Alt. Az. Time Alt. Az.
03 Jul 6.2 20:35:16 10° SSE 20:39:55 35° E 20:44:38 10° NNE visible
03 Jul 7.8 22:16:46 10° SW 22:20:46 21° WNW 22:24:37 10° NNW visible
04 Jul 6.8 21:42:07 10° SSW 21:47:00 41° W 21:51:54 10° NNW visible
05 Jul 5.6 21:08:13 10° S 21:13:25 80° W 21:18:39 10° N visible
06 Jul 5.7 20:34:55 10° SSE 20:39:57 52° E 20:45:01 10° NNE visible
06 Jul 8.2 22:18:13 10° WSW 22:21:06 14° WNW 22:23:43 10° NW visible
07 Jul 7.5 21:42:47 10° SW 21:47:15 27° W 21:51:37 10° NNW visible
08 Jul 6.3 21:08:28 10° SSW 21:13:33 53° W 21:18:38 10° N visible
09 Jul 5.5 20:34:49 10° S 20:40:01 79° E 20:45:14 10° N visible
10 Jul 8.2 21:43:51 10° WSW 21:47:32 19° WNW 21:51:02 10° NW visible
11 Jul 7.2 21:08:58 10° SSW 21:13:44 35° W 21:18:28 10° NNW visible
12 Jul 5.9 20:34:56 10° S 20:40:06 70° W 20:45:19 10° N visible
